Saint Louis, Missouri, United States (63101)
Lat: 38.63N, Lon: 90.2W
Wx Zone: MOZ064
Local Info
Past Weather Observations for Today

NOTE: This archive is for the closest National Weather Service station to Saint Louis. Information may differ from the station used for current weather conditions.

Time Weather Temperature Dewpoint Humidity Pressure Winds Precip Visibility
19:09
Overcast
Heavy Rain
59°F / 15°C 57°F / 14°C 94% 29.68 in
(1005 mb)
NNW 5.8 mph
(NNW 9 kph)
0.12 in
(3.05 mm)
2 1/2SM
18:53
Overcast
Rain
59°F / 15°C 57°F / 14°C 94% 29.68 in
(1005 mb)
NNW 5.8 mph
(NNW 9 kph)
0.23 in
(5.84 mm)
4SM
18:10
Overcast
Rain
61°F / 16°C 55°F / 13°C 83% 29.68 in
(1005 mb)
NW 17.3 mph
(NW 28 kph)
0.09 in
(2.29 mm)
5SM
17:53
Overcast
Rain
61°F / 16°C 55°F / 13°C 83% 29.65 in
(1004 mb)
NW 26.5 mph
(NW 43 kph)
0.13 in
(3.30 mm)
2 1/2SM
16:53
Overcast
75°F / 24°C 50°F / 10°C 41% 29.62 in
(1003 mb)
SSE 12.7 mph
(SSE 20 kph)
- 10SM
15:53
Mostly Cloudy
75°F / 24°C 48°F / 9°C 39% 29.62 in
(1003 mb)
S 12.7 mph
(S 20 kph)
- 10SM
14:53
Clear
79°F / 26°C 48°F / 9°C 34% 29.62 in
(1003 mb)
S 17.3 mph
(S 28 kph)
- 10SM
13:53
Partly Cloudy
77°F / 25°C 46°F / 8°C 34% 29.65 in
(1004 mb)
SSE 16.1 mph
(SSE 26 kph)
- 10SM
12:53
Mostly Cloudy
75°F / 24°C 46°F / 8°C 36% 29.74 in
(1007 mb)
SE 13.8 mph
(SE 22 kph)
- 10SM
11:53
Clear
73°F / 23°C 45°F / 7°C 36% 29.77 in
(1008 mb)
SSE 13.8 mph
(SSE 22 kph)
- 10SM
10:53
Clear
72°F / 22°C 43°F / 6°C 36% 29.83 in
(1010 mb)
SSE 15 mph
(SSE 24 kph)
- 10SM
09:53
Clear
66°F / 19°C 43°F / 6°C 43% 29.83 in
(1010 mb)
SE 13.8 mph
(SE 22 kph)
- 10SM
08:53
Clear
63°F / 17°C 39°F / 4°C 42% 29.83 in
(1010 mb)
SSE 18.4 mph
(SSE 30 kph)
- 10SM
07:53
Clear
59°F / 15°C 39°F / 4°C 48% 29.86 in
(1011 mb)
SE 15 mph
(SE 24 kph)
- 10SM
06:53
Clear
54°F / 12°C 37°F / 3°C 54% 29.89 in
(1012 mb)
SE 12.7 mph
(SE 20 kph)
- 10SM
05:53
Clear
52°F / 11°C 37°F / 3°C 58% 29.92 in
(1013 mb)
SE 9.2 mph
(SE 15 kph)
- 10SM
04:53
Clear
50°F / 10°C 37°F / 3°C 62% 29.89 in
(1012 mb)
SE 6.9 mph
(SE 11 kph)
- 10SM
03:53
Clear
52°F / 11°C 36°F / 2°C 54% 29.92 in
(1013 mb)
SSE 3.5 mph
(SSE 6 kph)
- 10SM
02:53
Clear
52°F / 11°C 36°F / 2°C 54% 29.92 in
(1013 mb)
SSE 6.9 mph
(SSE 11 kph)
- 10SM
01:53
Clear
52°F / 11°C 36°F / 2°C 54% 29.92 in
(1013 mb)
SSE 6.9 mph
(SSE 11 kph)
- 10SM
00:53
Clear
54°F / 12°C 36°F / 2°C 51% 29.92 in
(1013 mb)
SSE 6.9 mph
(SSE 11 kph)
- 10SM
Time Weather Temperature Dewpoint Humidity Pressure Winds Precip Visibility


Weather for websites

WeatherForYou.com, LLC is not responsible for any damages or problems caused by this service. Current weather conditions are obtained from the closest station including government and personal stations which may have varying degrees of accuracy. Weather forecasts are derived from the NOAA NDFD. Like all things, this site belongs to Jesus Christ... He just trusts me to maintain it. If you have any questions or comments email webmaster@weatherforyou.com

Copyright © 2014, WeatherForYou.com LLC. All rights reserved.